This demonstration page uses our WeatherBlox Daily Observations layout. Learn more.

Left ArrowRight Arrow

Hourly Observations for May 1, 2020

Temp ( °F °C ) Dew Point ( °F °C ) Humidity (%) Winds ( mph kmh ) Pressure ( in mb ) Visibility ( mi km ) Precip ( " mm )
12:52 am 00:52 Cloudy 61 16.1 38 3.3 43 43 SSE 9 15 29.85 1011 10 16 0.00 0.00
1:52 am 01:52 Cloudy 61 16.1 41 5 48 48 S 9 15 29.84 1011 10 16 0.00 0.00
2:52 am 02:52 Mostly Cloudy 57 13.9 41 5 55 55 SSE 10 17 29.85 1011 10 16 0.00 0.00
3:52 am 03:52 Mostly Cloudy 58 14.4 42 5.6 56 56 S 8 13 29.83 1010 10 16 0.00 0.00
4:52 am 04:52 Mostly Cloudy 57 13.9 43 6.1 60 60 Calm 29.86 1011 10 16 0.00 0.00
5:52 am 05:52 Mostly Cloudy 56 13.3 43 6.1 62 62 SE 12 19 29.83 1010 10 16 0.00 0.00
6:52 am 06:52 Mostly Cloudy 58 14.4 44 6.7 60 60 SSE 15 24 29.80 1009 10 16 0.00 0.00
7:52 am 07:52 Mostly Cloudy 61 16.1 46 7.8 58 58 S 13 20 29.80 1009 10 16 0.00 0.00
8:52 am 08:52 Partly Cloudy 65 18.3 47 8.3 52 52 S 20 31 29.78 1008 10 16 0.00 0.00
9:52 am 09:52 Partly Cloudy 70 21.1 49 9.4 47 47 SSE 25 41 29.73 1007 10 16 0.00 0.00
10:52 am 10:52 Partly Cloudy 75 23.9 50 10 41 41 S 14 22 29.75 1008 10 16 0.00 0.00
11:52 am 11:52 Partly Cloudy 76 24.4 49 9.4 39 39 SW 15 24 29.75 1008 10 16 0.00 0.00
12:52 pm 12:52 Partly Cloudy 79 26.1 50 10 36 36 SSW 12 19 29.73 1007 10 16 0.00 0.00
1:52 pm 13:52 Partly Cloudy 81 27.2 50 10 34 34 S 13 20 29.72 1006 10 16 0.00 0.00
2:52 pm 14:52 Partly Cloudy 83 28.3 51 10.6 33 33 SSW 12 19 29.72 1006 10 16 0.00 0.00
3:52 pm 15:52 Partly Cloudy 84 28.9 51 10.6 32 32 VRB 5 7 29.70 1006 10 16 0.00 0.00
4:52 pm 16:52 Mostly Sunny 86 30 51 10.6 30 30 SSW 9 15 29.70 1006 10 16 0.00 0.00
5:52 pm 17:52 Mostly Sunny 86 30 51 10.6 30 30 S 9 15 29.69 1005 10 16 0.00 0.00
6:52 pm 18:52 Partly Cloudy 85 29.4 50 10 30 30 S 10 17 29.69 1006 10 16 0.00 0.00
7:52 pm 19:52 Partly Cloudy 83 28.3 52 11.1 34 34 S 12 19 29.71 1006 10 16 0.00 0.00
8:52 pm 20:52 Partly Cloudy 82 27.8 51 10.6 34 34 SE 3 6 29.73 1007 10 16 0.00 0.00
9:52 pm 21:52 Clear 77 25 50 10 39 39 VRB 3 6 29.77 1008 10 16 0.00 0.00
10:52 pm 22:52 Clear 73 22.8 44 6.7 35 35 NNE 5 7 29.80 1009 10 16 0.00 0.00
11:52 pm 23:52 Clear 68 20 45 7.2 44 44 NNE 8 13 29.82 1010 10 16 0.00 0.00

Powered by AerisWeather